Regional Weather Roundup
Issued by NWS

Home | Current Version | Previous Version | Graphics & Text | Print | Product List | Glossary Off
Versions: 1 2 3 4 5 6 7 8 9 10 11 12 13 14 15 16 17 18 19 20 21 22 23 24 25 26 27 28 29 30 31 32 33 34 35 36 37 38 39 40 41 42 43 44 45 46 47 48 49 50

000
ASUS43 KLSX 012110
RWRMO

WEATHER SUMMARY FOR MISSOURI
NATIONAL WEATHER SERVICE SPRINGFIELD MO
400 PM CDT TUE SEP 01 2015

NOTE: "FAIR" INDICATES FEW OR NO CLOUDS BELOW 12,000 FEET WITH NO
       SIGNIFICANT WEATHER AND/OR OBSTRUCTIONS TO VISIBILITY.
       CURRENT SKY AND/OR WEATHER CONDITIONS ARE NOT AVAILABLE FOR
       CHILLICOTHE AND FARMINGTON.

MOZ001>031-035>038-043-044-053-054-012200-
...NORTHERN AND WESTERN MISSOURI...

CITY           SKY/WX    TMP DP  RH WIND       PRES   REMARKS
KANSAS CTY INT MOSUNNY   90  66  45 S15       29.99F HX  92
KANSAS C DTWN  MOSUNNY   91  68  46 S14G20    29.99F HX  95
LEE`S SUMMIT   SUNNY     89  68  49 S8G18     30.01F HX  93
ST JOSEPH      SUNNY     89  68  49 S12G22    29.97F HX  93
CHILLICOTHE      N/A     91  68  46 S14       30.00F HX  95
KIRKSVILLE     SUNNY     89  67  47 SW10      30.03F HX  92

$$
MOZ066>068-077>081-088>096-101>105-012200-
...SOUTHWEST MISSOURI...

CITY           SKY/WX    TMP DP  RH WIND       PRES   REMARKS
SPRINGFIELD    SUNNY     87  65  47 SE9       30.06F
JOPLIN         MOSUNNY   86  67  52 S8        30.04F

$$
MOZ032>034-039>042-045>050-055>058-069>072-012200-
...CENTRAL MISSOURI...

CITY           SKY/WX    TMP DP  RH WIND       PRES   REMARKS
COLUMBIA       SUNNY     89  68  49 SW8       30.04F HX  93
JEFFERSON CITY SUNNY     91  65  41 S12       30.01F HX  93
ROLLA          MOSUNNY   89  66  46 S14       30.06S HX  91
SEDALIA        MOSUNNY   92  67  43 S10       30.04F HX  95
WHITEMAN AFB   MOSUNNY   92  68  45 SW12      30.01F HX  95
WARRENSBURG    SUNNY     90  64  43 S9        30.01F HX  91
OSAGE BEACH    MOSUNNY   90  66  45 S5        30.05F HX  92

$$
MOZ051-052-059>065-012200-
...EAST CENTRAL MISSOURI...

CITY           SKY/WX    TMP DP  RH WIND       PRES   REMARKS
ST LOUIS INTL  MOSUNNY   92  68  45 S10       30.05F HX  96
SPIRIT OF STL  MOSUNNY   91  71  51 VRB6      30.03F HX  97
ST CHARLES     MOSUNNY   91  70  49 S10       30.02F HX  96

$$
MOZ072>076-082>087-097>100-106>115-012200-
...SOUTH CENTRAL AND SOUTHEAST MISSOURI...

CITY           SKY/WX    TMP DP  RH WIND       PRES   REMARKS
CAPE GIRARDEAU PTSUNNY   87  70  56 VRB6      30.06F HX  92
FARMINGTON     MOSUNNY   88  70  55 S8        30.10F HX  92
POPLAR BLUFF   MOSUNNY   88  68  51 CALM      30.06F HX  91
WEST PLAINS    MOSUNNY   84  68  58 S9        30.10F

$$



USA.gov is the U.S. government's official web portal to all federal, state and local government web resources and services.